Simultaneous Nadir Overpasses (SNOs) Predictions

Prediction of SNOs between FY3D and TERRA Satellite Orbit:

Table of predicted SNOs for the next 14.0 days since TLE Epoch: 3/16/2024
Index Date (FY3D) Time (FY3D) Lat,Lon (FY3D) SZA (FY3D ) Date (TERRA) Time (TERRA) Lat,Lon (TERRA) SZA (TERRA ) Distance(km) Time Diff (sec)
1 03/16/2024 19:06:51 -75.18, 73.33 103.58 03/16/2024 19:07:15 -75.16, 73.41 103.60 2.68 24
2 03/16/2024 19:57:36 75.11,-119.15 76.33 03/16/2024 19:56:37 75.09,-119.13 76.31 2.36 59
3 03/19/2024 06:19:54 -75.20, -94.95 104.54 03/19/2024 06:21:00 -75.22, -94.91 104.52 2.83 66
4 03/19/2024 07:10:39 75.13, 72.57 75.38 03/19/2024 07:10:22 75.14, 72.55 75.39 1.95 17
5 03/21/2024 18:23:43 75.20, -95.88 74.48 03/21/2024 18:24:07 75.18, -95.84 74.45 2.94 24
6 03/21/2024 19:14:26 -75.14, 71.64 105.61 03/21/2024 19:13:30 -75.15, 71.75 105.59 3.47 56
7 03/24/2024 05:36:46 75.24, 95.80 73.54 03/24/2024 05:37:51 75.24, 95.86 73.54 1.67 65
8 03/24/2024 06:27:29 -75.17, -96.68 106.54 03/24/2024 06:27:15 -75.16, -96.70 106.56 1.41 14
9 03/26/2024 17:40:31 -75.22, 94.97 107.47 03/26/2024 17:40:58 -75.20, 94.93 107.49 2.48 27
10 03/26/2024 18:31:16 75.15, -97.51 72.45 03/26/2024 18:30:20 75.13, -97.60 72.43 3.51 56
11 03/29/2024 04:53:34 -75.27, -73.40 108.38 03/29/2024 04:54:41 -75.26, -73.37 108.39 1.25 67
12 03/29/2024 05:44:19 75.20, 94.12 71.54 03/29/2024 05:44:03 75.19, 94.11 71.53 0.91 16



Historial Predications of SNOs between FY3D and TERRA
